Location: Cheadle
(51.0146°N, 113.5417°W)
Time: 20:44:29
(UTC+00:00)

Envisat - Pass Details

Date: 30 May 2023
Orbit: 763 x 764 km, 98.2° (Epoch: 22 September)

Event Time Altitude Azimuth Distance (km) Brightness Sun altitude
Rises 09:56:45 0° 30° (NNE) 3,241 8.5 -10.5°
Reaches altitude 10° 10:00:27 10° 58° (ENE) 2,308 6.7 -10.2°
Maximum altitude 10:02:46 13° 85° (E) 2,099 5.9 -10.0°
Drops below altitude 10° 10:05:04 10° 112° (ESE) 2,300 5.7 -9.8°
Sets 10:08:43 0° 140° (SE) 3,220 6.1 -9.5°
